Location: Broletto
(44.6000°N, 10.5833°E)
Time: 02:31:44
(UTC+00:00)

Cosmos 1763 Rocket - Pass Details

Date: 18 April 2021
Orbit: 733 x 779 km, 74.0° (Epoch: 07 May)

Event Time Altitude Azimuth Distance (km) Brightness Sun altitude
Rises 21:57:08 0° 335° (NNW) 3,176 7.9 -31.4°
Reaches altitude 10° 21:59:31 10° 332° (NNW) 2,246 6.8 -31.6°
Enters shadow 22:02:58 41° 312° (NW) 1,054 4.5 -31.8°
